| time (UTC) | temp F | wind direction | speed MPH | gust MPH | rain 1hr in | rain 24hr in | rain mn in | humidity % | barometer mb |
| 20260504201943 | 73 | 278 | 3.0 | 3.0 | 0.00 | 0.00 | 0.00 | 37 | 1011.7 |
| 20260504201441 | 72 | 227 | 3.0 | 3.0 | 0.00 | 0.00 | 0.00 | 36 | 1011.8 |
| 20260504200938 | 73 | 168 | 2.0 | 2.0 | 0.00 | 0.00 | 0.00 | 37 | 1011.8 |
| 20260504200435 | 74 | 200 | 1.0 | 2.0 | 0.00 | 0.00 | 0.00 | 36 | 1011.7 |
| 20260504195931 | 72 | 202 | 1.0 | 1.0 | 0.00 | 0.00 | 0.00 | 36 | 1012.0 |
| 20260504195427 | 72 | 118 | 2.0 | 3.0 | 0.00 | 0.00 | 0.00 | 36 | 1012.1 |
| 20260504194924 | 72 | 198 | 2.0 | 2.0 | 0.00 | 0.00 | 0.00 | 36 | 1012.1 |
| 20260504194420 | 72 | 159 | 1.0 | 1.0 | 0.00 | 0.00 | 0.00 | 36 | 1012.3 |
| 20260504193916 | 73 | 116 | 0.0 | 1.0 | 0.00 | 0.00 | 0.00 | 35 | 1012.4 |
| 20260504193414 | 71 | 170 | 2.0 | 2.0 | 0.00 | 0.00 | 0.00 | 36 | 1012.3 |
| 20260504192912 | 72 | 128 | 2.0 | 3.0 | 0.00 | 0.00 | 0.00 | 35 | 1012.5 |
| 20260504192409 | 71 | 106 | 2.0 | 3.0 | 0.00 | 0.00 | 0.00 | 36 | 1012.6 |
| 20260504191908 | 71 | 157 | 1.0 | 1.0 | 0.00 | 0.00 | 0.00 | 36 | 1012.7 |
| 20260504191406 | 72 | 141 | 2.0 | 3.0 | 0.00 | 0.00 | 0.00 | 35 | 1012.7 |
| 20260504190900 | 71 | 212 | 4.0 | 6.0 | 0.00 | 0.00 | 0.00 | 35 | 1012.8 |
| 20260504190357 | 72 | 193 | 2.0 | 3.0 | 0.00 | 0.00 | 0.00 | 35 | 1012.9 |
| 20260504185853 | 71 | 160 | 0.0 | 1.0 | 0.00 | 0.00 | 0.00 | 38 | 1012.9 |
| 20260504185351 | 71 | 121 | 0.0 | 0.0 | 0.00 | 0.00 | 0.00 | 37 | 1012.8 |
| 20260504184846 | 71 | 132 | 2.0 | 2.0 | 0.00 | 0.00 | 0.00 | 35 | 1012.9 |
| 20260504184342 | 70 | 168 | 2.0 | 2.0 | 0.00 | 0.00 | 0.00 | 38 | 1013.0 |
| 20260504183839 | 72 | 135 | 1.0 | 1.0 | 0.00 | 0.00 | 0.00 | 35 | 1013.0 |
| 20260504183336 | 71 | 156 | 2.0 | 3.0 | 0.00 | 0.00 | 0.00 | 36 | 1013.1 |
| 20260504182834 | 69 | 221 | 2.0 | 3.0 | 0.00 | 0.00 | 0.00 | 36 | 1013.2 |
| 20260504182331 | 70 | 186 | 2.0 | 3.0 | 0.00 | 0.00 | 0.00 | 37 | 1013.4 |
| 20260504181828 | 73 | 234 | 3.0 | 4.0 | 0.00 | 0.00 | 0.00 | 35 | 1013.5 |
| 20260504181325 | 71 | 94 | 3.0 | 6.0 | 0.00 | 0.00 | 0.00 | 35 | 1013.5 |
| 20260504180824 | 71 | 219 | 1.0 | 1.0 | 0.00 | 0.00 | 0.00 | 35 | 1013.3 |
| 20260504180322 | 70 | 245 | 3.0 | 3.0 | 0.00 | 0.00 | 0.00 | 35 | 1013.4 |
| 20260504175820 | 70 | 236 | 3.0 | 4.0 | 0.00 | 0.00 | 0.00 | 35 | 1013.5 |
| 20260504175316 | 70 | 153 | 1.0 | 2.0 | 0.00 | 0.00 | 0.00 | 35 | 1013.5 |
| 20260504174815 | 71 | 84 | 0.0 | 1.0 | 0.00 | 0.00 | 0.00 | 35 | 1013.5 |
| 20260504174312 | 70 | 154 | 2.0 | 4.0 | 0.00 | 0.00 | 0.00 | 36 | 1013.7 |
| 20260504173808 | 70 | 191 | 4.0 | 4.0 | 0.00 | 0.00 | 0.00 | 34 | 1013.9 |
| 20260504173305 | 69 | 194 | 3.0 | 4.0 | 0.00 | 0.00 | 0.00 | 36 | 1013.8 |
| 20260504172802 | 68 | 106 | 4.0 | 4.0 | 0.00 | 0.00 | 0.00 | 36 | 1014.0 |
| 20260504172259 | 69 | 122 | 3.0 | 3.0 | 0.00 | 0.00 | 0.00 | 35 | 1014.1 |
| 20260504171754 | 70 | 200 | 2.0 | 2.0 | 0.00 | 0.00 | 0.00 | 34 | 1014.3 |
| 20260504171252 | 68 | 109 | 0.0 | 0.0 | 0.00 | 0.00 | 0.00 | 37 | 1014.3 |
| 20260504170749 | 70 | 248 | 0.0 | 1.0 | 0.00 | 0.00 | 0.00 | 35 | 1014.2 |
| 20260504170246 | 70 | 88 | 1.0 | 3.0 | 0.00 | 0.00 | 0.00 | 33 | 1014.3 |
| 20260504160204 | 69 | 100 | 1.0 | 1.0 | 0.00 | 0.00 | 0.00 | 41 | 1015.2 |
| 20260504151132 | 68 | 134 | 1.0 | 1.0 | 0.00 | 0.00 | 0.00 | 45 | 1015.6 |
| 20260504150630 | 68 | 131 | 2.0 | 2.0 | 0.00 | 0.00 | 0.00 | 41 | 1015.5 |
| 20260504150126 | 65 | 168 | 2.0 | 2.0 | 0.00 | 0.00 | 0.00 | 42 | 1015.5 |
| 20260504141055 | 62 | 219 | 1.0 | 2.0 | 0.00 | 0.00 | 0.00 | 51 | 1015.6 |
| 20260504140552 | 64 | 133 | 0.0 | 0.0 | 0.00 | 0.00 | 0.00 | 49 | 1015.8 |
| 20260504130516 | 60 | 237 | 2.0 | 4.0 | 0.00 | 0.00 | 0.00 | 61 | 1016.0 |
| 20260504110403 | 49 | 210 | 1.0 | 2.0 | 0.00 | 0.00 | 0.00 | 84 | 1016.4 |
| 20260504100320 | 46 | 170 | 0.0 | 1.0 | 0.00 | 0.00 | 0.00 | 84 | 1016.6 |
| 20260504081714 | 48 | 156 | 0.0 | 1.0 | 0.00 | 0.00 | 0.00 | 77 | 1016.5 |
| 20260504081210 | 48 | 184 | 0.0 | 1.0 | 0.00 | 0.00 | 0.00 | 76 | 1016.6 |
| 20260504080707 | 48 | 145 | 0.0 | 0.0 | 0.00 | 0.00 | 0.00 | 75 | 1016.6 |
| 20260504080203 | 48 | 183 | 0.0 | 0.0 | 0.00 | 0.00 | 0.00 | 75 | 1016.5 |
| 20260504070131 | 49 | 215 | 0.0 | 0.0 | 0.00 | 0.00 | 0.00 | 72 | 1016.5 |
| 20260504050520 | 49 | 243 | 3.0 | 3.0 | 0.00 | 0.00 | 0.00 | 65 | 1016.6 |
| 20260504050017 | 49 | 227 | 0.0 | 1.0 | 0.00 | 0.00 | 0.00 | 67 | 1016.5 |
| 20260504045513 | 49 | 224 | 0.0 | 1.0 | 0.00 | 0.00 | 0.00 | 66 | 1016.6 |
| 20260504045009 | 50 | 227 | 2.0 | 2.0 | 0.00 | 0.00 | 0.00 | 66 | 1016.5 |
| 20260504044506 | 50 | 207 | 0.0 | 1.0 | 0.00 | 0.00 | 0.00 | 68 | 1016.5 |
| 20260504044003 | 50 | 130 | 1.0 | 1.0 | 0.00 | 0.00 | 0.00 | 66 | 1016.4 |
| 20260504043500 | 50 | 225 | 2.0 | 2.0 | 0.00 | 0.00 | 0.00 | 67 | 1016.5 |
| 20260504042958 | 50 | 221 | 2.0 | 2.0 | 0.00 | 0.00 | 0.00 | 68 | 1016.4 |
| 20260504042454 | 50 | 216 | 1.0 | 1.0 | 0.00 | 0.00 | 0.00 | 73 | 1016.4 |
| 20260504041951 | 50 | 223 | 1.0 | 1.0 | 0.00 | 0.00 | 0.00 | 74 | 1016.3 |
| 20260504041447 | 50 | 222 | 1.0 | 1.0 | 0.00 | 0.00 | 0.00 | 73 | 1016.2 |
| 20260504040943 | 51 | 240 | 1.0 | 1.0 | 0.00 | 0.00 | 0.00 | 72 | 1016.0 |
| 20260504040441 | 51 | 147 | 0.0 | 0.0 | 0.00 | 0.00 | 0.00 | 71 | 1016.1 |
| 20260504035937 | 51 | 231 | 1.0 | 1.0 | 0.00 | 0.00 | 0.00 | 69 | 1016.1 |
| 20260504035435 | 51 | 244 | 1.0 | 2.0 | 0.00 | 0.00 | 0.00 | 70 | 1016.0 |
| 20260504034931 | 51 | 258 | 3.0 | 3.0 | 0.00 | 0.00 | 0.00 | 69 | 1016.0 |
| 20260504034429 | 51 | 221 | 1.0 | 1.0 | 0.00 | 0.00 | 0.00 | 65 | 1016.1 |
| 20260504033925 | 51 | 228 | 0.0 | 0.0 | 0.00 | 0.00 | 0.00 | 60 | 1015.9 |
| 20260504033423 | 52 | 219 | 0.0 | 0.0 | 0.00 | 0.00 | 0.00 | 57 | 1015.9 |
| 20260504032920 | 52 | 222 | 0.0 | 1.0 | 0.00 | 0.00 | 0.00 | 56 | 1015.8 |
| 20260504032417 | 52 | 239 | 2.0 | 2.0 | 0.00 | 0.00 | 0.00 | 56 | 1016.0 |
| 20260504031914 | 52 | 234 | 1.0 | 1.0 | 0.00 | 0.00 | 0.00 | 57 | 1015.9 |
| 20260504031411 | 52 | 238 | 0.0 | 0.0 | 0.00 | 0.00 | 0.00 | 59 | 1015.9 |
| 20260504030907 | 51 | 223 | 2.0 | 3.0 | 0.00 | 0.00 | 0.00 | 59 | 1015.7 |
| 20260504030404 | 52 | 188 | 0.0 | 0.0 | 0.00 | 0.00 | 0.00 | 59 | 1015.7 |
| 20260504025900 | 52 | 230 | 1.0 | 1.0 | 0.00 | 0.00 | 0.00 | 58 | 1015.7 |
| 20260504025357 | 52 | 273 | 1.0 | 1.0 | 0.00 | 0.00 | 0.00 | 58 | 1015.8 |
| 20260504024854 | 52 | 212 | 0.0 | 0.0 | 0.00 | 0.00 | 0.00 | 57 | 1015.8 |
| 20260504024350 | 52 | 215 | 0.0 | 0.0 | 0.00 | 0.00 | 0.00 | 56 | 1015.7 |
| 20260504023848 | 52 | 200 | 0.0 | 0.0 | 0.00 | 0.00 | 0.00 | 56 | 1015.5 |
| 20260504023344 | 52 | 200 | 0.0 | 0.0 | 0.00 | 0.00 | 0.00 | 55 | 1016.0 |
| 20260504022840 | 52 | 208 | 0.0 | 0.0 | 0.00 | 0.00 | 0.00 | 54 | 1015.7 |
| 20260504022337 | 53 | 241 | 1.0 | 1.0 | 0.00 | 0.00 | 0.00 | 53 | 1015.6 |
| 20260504021833 | 52 | 246 | 1.0 | 1.0 | 0.00 | 0.00 | 0.00 | 52 | 1015.6 |
| 20260504021331 | 53 | 218 | 0.0 | 0.0 | 0.00 | 0.00 | 0.00 | 51 | 1016.0 |
| 20260504020828 | 53 | 228 | 0.0 | 0.0 | 0.00 | 0.00 | 0.00 | 50 | 1015.8 |
| 20260504020324 | 53 | 220 | 1.0 | 1.0 | 0.00 | 0.00 | 0.00 | 49 | 1015.9 |
| 20260504015820 | 53 | 210 | 0.0 | 0.0 | 0.00 | 0.00 | 0.00 | 49 | 1015.8 |
| 20260504015317 | 53 | 211 | 0.0 | 0.0 | 0.00 | 0.00 | 0.00 | 49 | 1015.9 |
| 20260504014813 | 53 | 247 | 1.0 | 1.0 | 0.00 | 0.00 | 0.00 | 47 | 1015.7 |
| 20260504014309 | 53 | 191 | 0.0 | 0.0 | 0.00 | 0.00 | 0.00 | 48 | 1015.9 |
| 20260504013807 | 53 | 192 | 0.0 | 0.0 | 0.00 | 0.00 | 0.00 | 46 | 1015.7 |
| 20260504013305 | 54 | 214 | 0.0 | 0.0 | 0.00 | 0.00 | 0.00 | 44 | 1015.7 |
| 20260504012801 | 54 | 229 | 0.0 | 0.0 | 0.00 | 0.00 | 0.00 | 44 | 1015.5 |
| 20260504012259 | 55 | 215 | 0.0 | 0.0 | 0.00 | 0.00 | 0.00 | 43 | 1015.5 |
| 20260504011755 | 54 | 225 | 0.0 | 1.0 | 0.00 | 0.00 | 0.00 | 44 | 1015.3 |
| 20260504011252 | 54 | 184 | 0.0 | 0.0 | 0.00 | 0.00 | 0.00 | 44 | 1015.4 |
| 20260504010748 | 54 | 202 | 0.0 | 0.0 | 0.00 | 0.00 | 0.00 | 45 | 1015.4 |
| 20260504010244 | 54 | 142 | 0.0 | 0.0 | 0.00 | 0.00 | 0.00 | 44 | 1015.5 |
| 20260504005741 | 55 | 155 | 0.0 | 0.0 | 0.00 | 0.00 | 0.00 | 44 | 1015.4 |
| 20260504005238 | 55 | 222 | 1.0 | 1.0 | 0.00 | 0.00 | 0.00 | 42 | 1015.2 |
| 20260504004736 | 55 | 249 | 0.0 | 1.0 | 0.00 | 0.00 | 0.00 | 41 | 1015.1 |
| 20260504004232 | 55 | 216 | 0.0 | 1.0 | 0.00 | 0.00 | 0.00 | 42 | 1015.0 |
| 20260504003729 | 55 | 231 | 3.0 | 3.0 | 0.00 | 0.00 | 0.00 | 42 | 1015.0 |
| 20260504003226 | 55 | 232 | 1.0 | 2.0 | 0.00 | 0.00 | 0.00 | 43 | 1015.1 |
| 20260504002723 | 55 | 199 | 0.0 | 0.0 | 0.00 | 0.00 | 0.00 | 43 | 1015.0 |
| 20260504002220 | 55 | 236 | 0.0 | 0.0 | 0.00 | 0.00 | 0.00 | 41 | 1015.0 |
| 20260504001718 | 56 | 225 | 0.0 | 0.0 | 0.00 | 0.00 | 0.00 | 41 | 1014.6 |
| 20260504001214 | 56 | 231 | 0.0 | 1.0 | 0.00 | 0.00 | 0.00 | 41 | 1014.6 |
| 20260504000711 | 56 | 205 | 0.0 | 0.0 | 0.00 | 0.00 | 0.00 | 40 | 1014.7 |
| 20260504000208 | 56 | 284 | 0.0 | 1.0 | 0.00 | 0.00 | 0.00 | 41 | 1014.6 |
| 20260503235706 | 56 | 187 | 0.0 | 0.0 | 0.00 | 0.00 | 0.00 | 41 | 1014.3 |
| 20260503235203 | 57 | 248 | 0.0 | 0.0 | 0.00 | 0.00 | 0.00 | 40 | 1014.5 |
| 20260503234701 | 57 | 183 | 0.0 | 0.0 | 0.00 | 0.00 | 0.00 | 39 | 1014.5 |
| 20260503234159 | 57 | 234 | 0.0 | 1.0 | 0.00 | 0.00 | 0.00 | 39 | 1014.4 |
| 20260503233655 | 58 | 245 | 1.0 | 1.0 | 0.00 | 0.00 | 0.00 | 38 | 1014.3 |
| 20260503233151 | 58 | 280 | 1.0 | 2.0 | 0.00 | 0.00 | 0.00 | 37 | 1014.4 |
| 20260503232648 | 58 | 240 | 0.0 | 1.0 | 0.00 | 0.00 | 0.00 | 36 | 1014.5 |
| 20260503232145 | 58 | 272 | 0.0 | 1.0 | 0.00 | 0.00 | 0.00 | 37 | 1014.5 |
| 20260503231644 | 59 | 106 | 3.0 | 4.0 | 0.00 | 0.00 | 0.00 | 36 | 1014.4 |
| 20260503231139 | 59 | 271 | 1.0 | 1.0 | 0.00 | 0.00 | 0.00 | 37 | 1014.4 |
| 20260503230636 | 59 | 238 | 4.0 | 6.0 | 0.00 | 0.00 | 0.00 | 35 | 1014.2 |
| 20260503230134 | 59 | 244 | 1.0 | 2.0 | 0.00 | 0.00 | 0.00 | 36 | 1014.2 |
| 20260503225631 | 59 | 240 | 2.0 | 3.0 | 0.00 | 0.00 | 0.00 | 36 | 1014.2 |
| 20260503225131 | 59 | 260 | 3.0 | 3.0 | 0.00 | 0.00 | 0.00 | 35 | 1014.1 |
| 20260503224628 | 59 | 140 | 0.0 | 0.0 | 0.00 | 0.00 | 0.00 | 35 | 1014.0 |
| 20260503224126 | 59 | 232 | 1.0 | 2.0 | 0.00 | 0.00 | 0.00 | 35 | 1014.3 |
| 20260503223624 | 59 | 273 | 1.0 | 2.0 | 0.00 | 0.00 | 0.00 | 34 | 1014.2 |
| 20260503223120 | 60 | 266 | 3.0 | 3.0 | 0.00 | 0.00 | 0.00 | 34 | 1014.3 |
| 20260503222617 | 60 | 200 | 1.0 | 1.0 | 0.00 | 0.00 | 0.00 | 34 | 1014.2 |
| 20260503222115 | 61 | 256 | 3.0 | 3.0 | 0.00 | 0.00 | 0.00 | 33 | 1014.2 |
| 20260503221613 | 61 | 221 | 2.0 | 3.0 | 0.00 | 0.00 | 0.00 | 32 | 1014.3 |
| 20260503221110 | 61 | 235 | 5.0 | 7.0 | 0.00 | 0.00 | 0.00 | 32 | 1014.4 |
| 20260503220607 | 61 | 286 | 4.0 | 6.0 | 0.00 | 0.00 | 0.00 | 32 | 1014.4 |
| 20260503220104 | 61 | 333 | 3.0 | 4.0 | 0.00 | 0.00 | 0.00 | 33 | 1014.3 |
| 20260503215600 | 61 | 219 | 2.0 | 4.0 | 0.00 | 0.00 | 0.00 | 32 | 1014.3 |
| 20260503215057 | 61 | 231 | 3.0 | 7.0 | 0.00 | 0.00 | 0.00 | 32 | 1014.1 |
| 20260503214556 | 61 | 206 | 1.0 | 2.0 | 0.00 | 0.00 | 0.00 | 31 | 1014.3 |
| 20260503214052 | 61 | 231 | 3.0 | 4.0 | 0.00 | 0.00 | 0.00 | 32 | 1014.2 |
| 20260503213551 | 61 | 247 | 1.0 | 4.0 | 0.00 | 0.00 | 0.00 | 33 | 1014.2 |
| 20260503213047 | 61 | 78 | 2.0 | 3.0 | 0.00 | 0.00 | 0.00 | 32 | 1014.4 |
| 20260503212544 | 62 | 19 | 4.0 | 6.0 | 0.00 | 0.00 | 0.00 | 32 | 1014.2 |
| 20260503212042 | 62 | 242 | 4.0 | 6.0 | 0.00 | 0.00 | 0.00 | 30 | 1014.2 |
| 20260503211538 | 61 | 299 | 1.0 | 3.0 | 0.00 | 0.00 | 0.00 | 33 | 1014.4 |
| 20260503211034 | 62 | 193 | 4.0 | 6.0 | 0.00 | 0.00 | 0.00 | 30 | 1014.3 |
| 20260503210531 | 62 | 219 | 5.0 | 7.0 | 0.00 | 0.00 | 0.00 | 32 | 1014.3 |
| 20260503210027 | 62 | 291 | 2.0 | 3.0 | 0.00 | 0.00 | 0.00 | 33 | 1014.3 |
| 20260503205523 | 61 | 303 | 2.0 | 3.0 | 0.00 | 0.00 | 0.00 | 33 | 1014.3 |
| 20260503205020 | 61 | 203 | 2.0 | 3.0 | 0.00 | 0.00 | 0.00 | 33 | 1014.4 |
| 20260503204517 | 61 | 158 | 1.0 | 1.0 | 0.00 | 0.00 | 0.00 | 33 | 1014.4 |
| 20260503204014 | 60 | 277 | 6.0 | 8.0 | 0.00 | 0.00 | 0.00 | 33 | 1014.4 |
| 20260503203511 | 60 | 198 | 2.0 | 3.0 | 0.00 | 0.00 | 0.00 | 34 | 1014.4 |
| 20260503203008 | 61 | 297 | 8.0 | 10.0 | 0.00 | 0.00 | 0.00 | 33 | 1014.4 |
| 20260503202506 | 61 | 215 | 3.0 | 6.0 | 0.00 | 0.00 | 0.00 | 34 | 1014.3 |